Other Public Products
Issued by NWS Charleston, SC

Current Version | Previous Version | Graphics & Text | Print | Product List | Glossary On
Versions: 1 2 3 4 5 6 7 8 9 10 11 12 13 14 15 16 17 18 19 20 21 22 23 24 25 26 27 28 29 30 31 32 33 34 35 36 37 38 39 40 41 42 43 44 45 46 47 48 49 50
000
FPUS82 KCHS 220912
OPUCHS

TEST...KCHS/KSAV Gateway Observations...TEST
National Weather Service Charleston SC
500 AM EDT SUN APR 22 2018

NOTE: "fair" indicates few or no clouds below 12,000 feet with no
significant weather and/or obstructions to visibility.

SCZ050-WAZ558-NCZ071-TXZ119-213-PAZ071-DCZ001-FLZ074-172-MI076-
NYZ176-178-MAZ016-IL014-TNZ027-NJZ106-GAZ044-MD014-221000-

...Gateway Observations for Charleston International...

CITY           SKY/WX    TMP DP  RH WIND       PRES   REMARKS
Chas Airport   FAIR      58  55  90 E8        30.27S
Seattle        MOCLDY    46  37  71 NE8       30.39F
Charlotte      FAIR      50  46  86 CALM      30.32S
Dallas DFW     CLOUDY    53  48  83 N15G29    30.04R
Dallas Love    MOCLDY    54  48  80 N13G22    30.05R
Philladelphia  MOCLDY    45  28  51 CALM      30.40R
Wash National  MOCLDY    49  38  65 S6        30.39R
Baltimore      MOCLDY    44  37  76 CALM      30.38R
Miami          MOCLDY    75  72  90 SE7       30.04S
Detroit        FAIR      37  25  61 CALM      30.39S
Newark         FAIR      46  19  34 N9        30.38F
Laguardia      FAIR      48  23  37 NW8       30.37F
J F K          FAIR      43  21  41 N8        30.39S
Boston Logan   FAIR      43  21  41 W9        30.32S
Ft. Lauderdale MOCLDY    77  75  93 E15       30.04S
Chicago O`Hare CLOUDY    44  19  36 E5        30.34R
Chicago Midway CLOUDY    45  21  38 E7        30.35R
Houston Bush   MOCLDY    68  67  96 W6        29.92R
Houston Hobby  MOCLDY    68  68 100 W7        29.91S
Nashville      CLOUDY    59  43  55 SE7       30.15S
Atlanta        CLOUDY    61  54  77 SE7       30.21F

$$

GAZ044-118-TXZ119-213-NCZ071-DCZ001-MDZ014-506-PAZ021-071-NJZ106-
NYZ176-178-MAZ106-OHZ011-021-055-MIZ076-KYZ091-ILZ014-INZ047-
MNZ060-ONZ431-221000-

...Gateway Observations for Savannah International...

CITY           SKY/WX    TMP DP  RH WIND       PRES   REMARKS
Savannah Arpt  CLOUDY    63  57  81 E7        30.23F
Atlanta        CLOUDY    61  54  77 SE7       30.21F
Charlotte      FAIR      50  46  86 CALM      30.32S
Dallas DFW     CLOUDY    53  48  83 N15G29    30.04R
Houston Bush   MOCLDY    68  67  96 W6        29.92R
Wash National  MOCLDY    49  38  65 S6        30.39R
Wash Dulles    CLOUDY    47  37  68 S3        30.37S
Baltimore      MOCLDY    44  37  76 CALM      30.38R
Philadelphia   MOCLDY    45  28  51 CALM      30.40R
Newark         FAIR      46  19  34 N9        30.38F
Laguardia      FAIR      48  23  37 NW8       30.37F
J F K          FAIR      43  21  41 N8        30.39S
Boston         FAIR      43  21  41 W9        30.32S
Pittsburg      MOCLDY    46  23  40 E8        30.31F
Akron          CLOUDY    44  23  43 E9        30.33F
Cleveland      FAIR      39  35  86 NE5       30.38F WCI  36
Cincinnati     CLOUDY    50  26  39 E7        30.26S
Columbus       FAIR      43  29  57 NE7       30.29F
Detroit        FAIR      37  25  61 CALM      30.39S
Chicago O`Hare CLOUDY    44  19  36 E5        30.34R
Minneapolis    FAIR      41  32  70 CALM      30.33S
Indianapolis   MOCLDY    47  25  42 E6        30.29R
Toronto Canada CLEAR     36  23  60 NW6       30.40R WCI  31

$$




USA.gov is the U.S. government's official web portal to all federal, state and local government web resources and services.